Location: Unspecified
(52.1384°N, 8.6525°W)
Time: 19:11:48
(UTC+00:00)

N. Korean satellite - Pass Details

Date: 28 October 2020
Orbit: 453 x 503 km, 97.2° (Epoch: 04 December)

Event Time Altitude Azimuth Distance (km) Brightness Sun altitude
Rises 06:29:36 0° 11° (N) 2,491 10.2 -8.8°
Reaches altitude 10° 06:31:39 10° 9° (N) 1,607 9.2 -8.5°
Maximum altitude 06:35:04 68° 286° (WNW) 496 6.4 -7.9°
Drops below altitude 10° 06:38:27 10° 203° (SSW) 1,589 9.1 -7.4°
Sets 06:40:29 0° 201° (SSW) 2,458 10.1 -7.1°
